Location: *
(32.8667°N, 13.1833°E)
Time: 09:05:13
(UTC+00:00)

COSMOS 2455 - Pass Details

Date: 18 July 2019
Orbit: 899 x 911 km, 67.1° (Epoch: 21 August)

Event Time Altitude Azimuth Distance (km) Brightness Sun altitude
Exits shadow 22:51:58 43° 2° (N) 1,260 3.8 -35.9°
Drops below altitude 10° 22:56:01 10° 19° (NNE) 2,598 5.9 -36.0°
Sets 22:58:34 0° 23° (NNE) 3,543 6.7 -36.1°
